sat.trackr.live / text

‹ back to catalog

STARLINK-36359

NORAD 67979 · 2026-038U

PAYLOAD ACTIVE UNKNOWN

§ Identity

Operator
Country
US
Launch date
2026-02-25
Launch site
AFWTR
Launch vehicle
Mass (kg)
RCS (m²)

Purposes: comms

External: N2YO · Heavens-Above · Gunter

§ Orbital elements

Epoch: 2026-05-24T23:39:33.139872Z

Period
93.91 min
Inclination
97.2829°
Eccentricity
0.0002566
Mean motion
15.33442336 rev/d
Perigee alt
463.8 km
Apogee alt
467.3 km
Semi-major
6,843.7 km
B*
5.9224e-4
RAAN
155.0442°
Arg perigee
98.6694°
Mean anomaly
261.4839°
Rev number
1,493

§ Raw data

STARLINK-363591 67979U 26038U   26144.98580023  .00019093  00000+0  59224-3 0  99952 67979  97.2829 155.0442 0002566  98.6694 261.4839 15.33442336 14933

JSON: /api/v1/satellites/67979 · /tle

For live sub-satellite position, see the globe view (requires WebGL).

§ Visibility from observer

Set your observer location to see the next 7 days of passes ≥ 10°. The values pass through the URL so the page stays shareable.

No JS? Fill the form by hand. The geolocation button needs JavaScript.